DMSP 5D-2 F13 DEB, 40469

Orbit data source: Space-Track

DMSP 5D-2 F13 DEB, 40469 is space debris in SSO originally from a launch on Fri, 24 Mar 1995 UTC launched from the Air Force Western Test Range (AFWTR). Debris objects in space refer to the collection of defunct objects orbiting the Earth. Examples of debris include non-operational satellites, rocket bodies, and fragments generated from explosions, collisions, or faulty payload assembly.

Loading next visibility...
Identifier
40469, 1995-015BM
Orbit
SSO
Country
Flag of USUS
Related business
Manufacturer
Unknown
Mission
Spacecraft
Bus & Motor
Unknown
Mass
Unknown
Launch date (UTC)
1995-03-24 (31 years ago)
Launch vehicle
Unknown
Launch site
Air Force Western Test Range (AFWTR)
Object type
Payload
Rocket body
Debris
Shape & HBR
Unknown shape, 0.1 m
Radar Cross Section
Small (<0.1 m²)

Expand to show TLE details & history
Last TLE update: 18 hours ago

TLE from 18 hours ago
0 DMSP 5D-2 F13 DEB
1 40469U 95015BM  26072.90291267  .00010556  00000-0  22769-2 0  9991
2 40469  98.5681 137.6172 0019405  34.5137 325.7317 14.58455863575409
Epoch: 2026-03-13T21:40Z
TLE epoch observation values (Epoch: 2026-03-13T21:40:11.654Z)
Latitude
-0.00002°
Longitude
1.03687°
Altitude
689.794 km
Speed
7.517 km/s
True Right ascension
09h 10m 28s
True Declination
0° 00' 00"
Sunlit
Object was in full shadow at epoch
Visualization orbit readout
Latitude
Unknown
Longitude
Unknown
Altitude
Unknown
Speed
Unknown
Apparent Right ascension
Unknown
Apparent Declination
Unknown
Sunlit
N/A
Visualization observer readout
Local Sidereal Time
20:15:24
Azimuth
Unknown
Elevation
Unknown
Doppler factor
Unknown
Orbital elements
Apogee altitude
708.991 km
Perigee altitude
681.539 km
Semi-major axis
7,073.402 km
Eccentricity
0.00194
Inclination
98.5681°
RAAN
137.6172°
Arg. of periapsis
34.5137°
True anomaly
325.60624°
Mean anomaly
325.7317°
Eccentric anomaly
325.669°
Mean motion
3.64839 °/min
Orbital period
98.67 mins
BSTAR
0.0022769

Documentation

Showing up to 5 results
|